TimeEDT,TemperatureF,Dew PointF,Humidity,Sea Level PressureIn,VisibilityMPH,Wind Direction,Wind SpeedMPH,Gust SpeedMPH,PrecipitationIn,Events,Conditions,WindDirDegrees,DateUTC
12:53 AM,64.0,60.1,87,30.10,10.0,Calm,Calm,-,N/A,,Clear,0,2013-04-03 04:53:00
1:53 AM,61.0,57.9,90,30.09,10.0,Calm,Calm,-,N/A,,Clear,0,2013-04-03 05:53:00
2:53 AM,62.1,60.1,93,30.06,10.0,NE,3.5,-,N/A,,Clear,40,2013-04-03 06:53:00
3:53 AM,60.1,59.0,96,30.05,7.0,Calm,Calm,-,N/A,,Clear,0,2013-04-03 07:53:00
4:50 AM,60.8,59.0,94,30.04,1.8,East,4.6,-,N/A,,Clear,90,2013-04-03 08:50:00
4:53 AM,60.1,59.0,96,30.04,1.8,East,4.6,-,N/A,,Clear,90,2013-04-03 08:53:00
4:58 AM,60.8,59.0,94,30.03,3.0,East,4.6,-,N/A,,Clear,90,2013-04-03 08:58:00
5:53 AM,64.0,63.0,96,30.03,5.0,East,8.1,-,N/A,,Clear,100,2013-04-03 09:53:00
6:53 AM,64.0,63.0,96,30.05,6.0,ESE,4.6,-,N/A,,Clear,110,2013-04-03 10:53:00
7:53 AM,64.9,64.0,97,30.06,4.0,ESE,5.8,-,N/A,,Clear,110,2013-04-03 11:53:00
8:53 AM,70.0,66.9,90,30.06,10.0,SE,10.4,-,N/A,,Clear,130,2013-04-03 12:53:00
9:53 AM,75.9,66.0,71,30.07,10.0,SSE,12.7,-,N/A,,Clear,160,2013-04-03 13:53:00
10:53 AM,80.1,64.9,60,30.06,10.0,SE,11.5,-,N/A,,Partly Cloudy,140,2013-04-03 14:53:00
11:53 AM,82.9,64.0,53,30.04,10.0,SSE,12.7,19.6,N/A,,Partly Cloudy,150,2013-04-03 15:53:00
12:53 PM,86.0,62.1,44,30.02,10.0,SE,12.7,-,N/A,,Clear,140,2013-04-03 16:53:00
1:53 PM,88.0,60.1,39,30.01,10.0,South,15.0,18.4,N/A,,Partly Cloudy,190,2013-04-03 17:53:00
2:53 PM,87.1,64.9,48,30.00,10.0,West,13.8,19.6,N/A,,Scattered Clouds,260,2013-04-03 18:53:00
3:53 PM,84.9,66.0,53,29.98,10.0,WSW,15.0,-,N/A,,Partly Cloudy,250,2013-04-03 19:53:00
4:53 PM,82.0,66.9,60,29.99,10.0,WSW,16.1,-,N/A,,Clear,250,2013-04-03 20:53:00
5:53 PM,82.0,68.0,62,29.99,10.0,WSW,12.7,-,N/A,,Clear,240,2013-04-03 21:53:00
6:53 PM,80.1,64.9,60,29.98,10.0,SSW,9.2,-,N/A,,Clear,210,2013-04-03 22:53:00
7:53 PM,78.1,64.9,64,30.00,10.0,SW,10.4,-,N/A,,Clear,220,2013-04-03 23:53:00
8:53 PM,75.9,64.0,67,30.03,10.0,SW,8.1,-,N/A,,Clear,220,2013-04-04 00:53:00
9:53 PM,75.0,66.0,73,30.05,10.0,SSE,4.6,-,N/A,,Overcast,150,2013-04-04 01:53:00
10:53 PM,73.0,66.0,79,30.05,10.0,SSE,5.8,-,N/A,,Partly Cloudy,160,2013-04-04 02:53:00
11:53 PM,73.9,68.0,82,30.06,10.0,South,5.8,-,N/A,,Mostly Cloudy,170,2013-04-04 03:53:00